Regional Weather Roundup
Issued by NWS

Home | Current Version | Previous Version | Graphics & Text | Print | Product List | Glossary On
Versions: 1 2 3 4 5 6 7 8 9 10 11 12 13 14 15 16 17 18 19 20 21 22 23 24 25 26 27 28 29 30 31 32 33 34 35 36 37 38 39 40 41 42 43 44 45 46 47 48 49 50
000
ASUS43 KDTX 191701
RWRMI
MICHIGAN HOURLY REGIONAL WEATHER ROUNDUP
NATIONAL WEATHER SERVICE DETROIT/PONTIAC MI
1200 PM EST FRI DEC 19 2014

NOTE: "FAIR" INDICATES FEW OR NO CLOUDS BELOW 12,000 FEET WITH NO
SIGNIFICANT WEATHER AND/OR OBSTRUCTION TO VISIBILITY.

MIZ047>049-052>055-059>063-066>070-074>076-081>083-191800-
SOUTHEAST LOWER MICHIGAN

CITY           SKY/WX    TMP DP  RH WIND       PRES   REMARKS
ADRIAN         CLOUDY    29  24  82 SE3       30.27F
ALMA           MOSUNNY   25  19  78 CALM      30.28F
ANN ARBOR      CLOUDY    27  21  78 CALM      30.26
BAD AXE        SUNNY     28  24  82 NW7       30.26F WCI  21
CARO           MOSUNNY   28  22  78 NW5       30.26F WCI  22
DETROIT CITY   PTSUNNY   30  17  58 N3        30.27F
DETROIT        CLOUDY    28  19  69 VRB3      30.28S
FLINT          PTSUNNY   28  19  69 E3        30.27F
GROSSE ILE     CLOUDY    28  21  74 NW3       30.27R
HILLSDALE      CLOUDY    29  25  86 CALM      30.24S
HOWELL         PTSUNNY   26  21  81 NE3       30.25S

CITY           SKY/WX    TMP DP  RH WIND       PRES   REMARKS
JACKSON        CLOUDY    28  22  78 CALM      30.25S
LAMBERTVILLE   CLOUDY    32  27  80 CALM      30.28S
LANSING        CLOUDY    26  19  74 VRB3      30.27F
LAPEER         FAIR      28  20  73 NW3       30.25F
MASON          CLOUDY    26  20  80 E3        30.26S
MONROE         CLOUDY    28  25  86 CALM      30.26S
MT. CLEMENS    MOSUNNY   30  20  65 N7        30.23F WCI  24
PONTIAC        PTSUNNY   26  19  74 CALM      30.24F
PORT HOPE        N/A     30  22  72 NW8       30.25S WCI  22
PORT HURON     PTSUNNY   30  21  69 NW9       30.25F WCI  22
TRI CITIES     SUNNY     29  18  63 N5        30.28F WCI  24
TROY           PTSUNNY   31  20  64 N3        30.27F
SAGINAW HB     SUNNY     30  21  69 NW5       30.27F WCI  25
$$
MIZ043>046-050>051-056>058-064>065-071>073-077>080-191800-
SOUTHWEST LOWER MICHIGAN

CITY           SKY/WX    TMP DP  RH WIND       PRES   REMARKS
BATTLE CREEK   CLOUDY    29  21  72 CALM      30.27R
BENTON HARBOR  CLOUDY    32  24  72 VRB3      30.28F
BIG RAPIDS     SUNNY     25  21  85 CALM      30.26F
COLDWATER      CLOUDY    28  27  93 MISG      30.26S FOG
FREMONT        FAIR      28  18  66 NE7       30.27F WCI  20
HOLLAND        SUNNY     31  21  66 E6        30.29S WCI  25
GRAND RAPIDS   MOSUNNY   28  19  69 SE3       30.27F
IONIA          FAIR      29  19  66 N5        30.27R WCI  24
KALAMAZOO      PTSUNNY   31  21  66 CALM      30.27S
LUDINGTON      PTSUNNY   27  25  91 E5        30.29F WCI  22
MARSHALL       CLOUDY    28  22  80 CALM      30.26R
MOUNT PLEASANT SUNNY     26  19  75 W3        30.26F
MUSKEGON       MOSUNNY   30  19  63 N6        30.28F WCI  24
SOUTH HAVEN    SUNNY     33  20  60 N6        30.28F WCI  27
$$
MIZ016>042-191800-
NORTHERN LOWER MICHIGAN

CITY           SKY/WX    TMP DP  RH WIND       PRES   REMARKS
ALPENA         PTSUNNY   24  19  81 N6        30.27F WCI  17
BEAVER ISLAND  MOSUNNY   24  23  97 NE3       30.28F
BELLAIRE       SUNNY     22  20  93 S3        30.29F
CADILLAC       PTSUNNY   21  19  93 CALM      30.23F
CHARLEVOIX     SUNNY     24  19  83 CALM      30.30F
FRANKFORT      CLOUDY    28  25  87 CALM      30.28F
GAYLORD        SUNNY     25  16  68 N3        30.22F
GRAYLING       SUNNY     22  19  85 SW5       30.25F WCI  16
HARBOR SPRINGS SUNNY     22  16  78 CALM      30.27F
HOUGHTON LAKE  SUNNY     20  16  84 W3        30.25F
MANISTEE       CLOUDY    23  19  86 E5        30.29F WCI  17
OSCODA         MOSUNNY   27  20  74 NW5       30.26F WCI  22
PELLSTON       SUNNY     21  18  88 CALM      30.28F
ROGERS CITY    MOSUNNY   26  20  80 N5        30.28F WCI  20
TRAVERSE CITY  CLOUDY    27  20  75 SE3       30.28F
$$
MIZ007>008-015-191800-
EASTERN UPPER MICHIGAN

CITY           SKY/WX    TMP DP  RH WIND       PRES   REMARKS
KINROSS        SUNNY     25  18  74 CALM      30.27F
MACKINAC ISLAN SUNNY     24  15  69 NE5       30.27F WCI  18
NEWBERRY       SUNNY     20  19  93 CALM      30.27F
S. S. MARIE    SUNNY     23  10  57 NE6       30.26F WCI  16
MUNISING         N/A     32  22  66 E3        30.28F
$$
MIZ004>006-011>014-085-191800-
CENTRAL UPPER MICHIGAN

CITY           SKY/WX    TMP DP  RH WIND       PRES   REMARKS
MANISTIQUE     CLOUDY    26  23  87 W3        30.29S
ESCANABA       CLOUDY    23  21  93 CALM      30.29F
MENOMINEE      SUNNY     27  21  80 N3        30.29F
SAWYER-GWINN   CLOUDY    27  23  86 CALM      30.26S
$$
MIZ001>003-009>011-084-191800-
WESTERN UPPER MICHIGAN

CITY           SKY/WX    TMP DP  RH WIND       PRES   REMARKS
IRON MOUNTAIN  PTSUNNY   19  16  88 CALM      30.26F
HOUGHTON       CLOUDY    25  18  74 SW6       30.26F WCI  18
COPPER HARBOR    N/A     30  22  72 CALM      30.28F
IRONWOOD       CLOUDY    21  19  93 S10       30.21F WCI  10
$$

ABBREVIATIONS USED IN REMARKS
   TC - TEMPERATURE IN CELSIUS
  WCI - WIND CHILL INDEX
   HX - HEAT INDEX
  VSB - VISIBILITY



USA.gov is the U.S. government's official web portal to all federal, state and local government web resources and services.